Stations météo

Publicité
St-Dizier, France (7169): Température de l'air & dewpoint: 15.10.2019 07:00:00 - 21.10.2019 07:00:00 (CEST)St-Dizier, France (7169): Température de l'air 5cm: 15.10.2019 07:00:00 - 21.10.2019 07:00:00 (CEST)St-Dizier, France (7169): Température de l'air -20cm & Température de l'air -100cm: 15.10.2019 07:00:00 - 21.10.2019 07:00:00 (CEST)St-Dizier, France (7169): Vitesse du vent & gusts: 15.10.2019 07:00:00 - 21.10.2019 07:00:00 (CEST)St-Dizier, France (7169): Direction du vent: 15.10.2019 07:00:00 - 21.10.2019 07:00:00 (CEST)St-Dizier, France (7169): reduced air pressure: 15.10.2019 07:00:00 - 21.10.2019 07:00:00 (CEST)St-Dizier, France (7169): visibility: 15.10.2019 07:00:00 - 21.10.2019 07:00:00 (CEST)St-Dizier, France (7169): Ensoleillement: 15.10.2019 07:00:00 - 21.10.2019 07:00:00 (CEST)St-Dizier, France (7169): Quantités de précipitations: 15.10.2019 07:00:00 - 21.10.2019 07:00:00 (CEST)
Date & Time tt [°C] td [°C] tt 5cm [°C] tt -20cm [°C] tt -100cm [°C] ff [km/h] ff [knt] fx [km/h] fx [knt] dd ppp [hPa] vv [km] sd [min] rr [mm]
21.10.2019 07:00:00 12,7 9,0 11,4 14,0 15,6 24 13 41 22 SSW 1014,4 10 0 0,0
21.10.2019 06:00:00 13,9 10,7 12,6 14,0 15,6 19 10 33 18 S 1012,9 60 0 0,0
21.10.2019 05:00:00 14,3 11,8 12,9 14,1 15,6 11 6 31 17 S 1011,9 10 0 0,0
21.10.2019 04:00:00 14,5 12,4 12,6 14,1 15,6 14 7 22 12 S 1011,2 60 0 0,0
21.10.2019 03:00:00 14,1 12,8 13,1 14,1 15,6 8 4 18 10 SSE 1010,2 10 0 0,0
21.10.2019 02:00:00 14,4 12,9 12,6 14,2 15,6 11 6 26 14 SSE 1008,8 10 0 0,0
21.10.2019 01:00:00 12,8 12,8 9,7 14,2 15,6 9 5 15 8 SSE 1008,7 10 0 0,0
21.10.2019 00:00:00 13,1 12,3 11,4 14,2 15,6 4 2 22 12 SE 1007,8 10 0 0,0
20.10.2019 23:00:00 14,1 13,1 13,1 14,2 15,6 16 8 34 18 ESE 1007,3 60 0 0,2
20.10.2019 22:00:00 13,8 13,3 13,1 14,2 15,6 22 12 32 17 E 1006,8 9 0 1,6
20.10.2019 21:00:00 13,7 13,1 13,1 14,2 15,6 9 5 28 15 SSE 1007,5 10 0 0,8
20.10.2019 20:00:00 13,5 13,2 13,1 14,2 15,7 9 5 19 10 E 1006,5 9 0 0,6
20.10.2019 19:00:00 13,7 13,1 13,1 14,1 15,6 13 7 22 12 SE 1006,9 6 0 4,0
20.10.2019 18:00:00 14,0 13,5 13,5 14,1 15,6 16 8 24 13 E 1005,2 11 0 2,2
20.10.2019 17:00:00 14,3 13,8 14,0 14,1 15,7 11 6 18 10 SE 1006,5 10 0 1,5
20.10.2019 16:00:00 14,2 13,9 13,9 14,1 15,7 6 3 10 6 ESE 1005,7 5 0 2,6
20.10.2019 15:00:00 14,2 14,0 13,9 14,1 15,7 5 3 12 6 SSE 1005,4 3,1 0 5,0
20.10.2019 14:00:00 14,0 13,8 13,8 14,0 15,7 10 5 13 7 SE 1005,7 2,7 0 5,9
20.10.2019 13:00:00 14,1 13,5 13,7 14,0 15,7 5 3 18 10 - 1005,3 10 0 1,6
20.10.2019 12:00:00 14,3 13,5 13,4 14,0 15,7 11 6 18 10 WNW 1004,9 10 0 0,2
20.10.2019 11:00:00 13,6 12,8 12,9 14,1 15,7 9 5 16 9 ENE 1004,3 10 0 0,4
20.10.2019 10:00:00 13,0 12,4 12,4 14,1 15,7 7 4 24 13 ENE 1004,6 39 0 0,0
20.10.2019 09:00:00 12,7 12,1 12,4 14,1 15,7 14 8 39 21 NW 1004,9 38 0 0,0
20.10.2019 08:00:00 12,8 12,0 12,0 14,1 15,7 9 5 18 10 E 1004,0 10 0 0,0
20.10.2019 07:00:00 12,4 11,8 11,9 14,2 15,7 8 4 13 7 ENE 1005,0 10 0 0,2
20.10.2019 06:00:00 12,2 12,0 11,9 14,2 15,7 8 4 16 9 E 1005,9 10 0 0,4
20.10.2019 05:00:00 12,3 12,1 12,0 14,2 15,7 5 3 12 6 ESE 1006,7 5 0 1,6
20.10.2019 04:00:00 12,3 12,1 11,9 14,2 15,7 5 3 9 5 E 1006,3 10 0 0,0
20.10.2019 03:00:00 12,3 12,1 12,0 14,3 15,7 5 3 9 5 ESE 1007,0 10 0 0,2
20.10.2019 02:00:00 12,3 12,0 12,0 14,3 15,7 5 3 12 6 NE 1007,4 46 0 0,0
20.10.2019 01:00:00 12,3 12,0 12,0 14,3 15,7 8 4 11 6 NNW 1007,2 10 0 0,8
20.10.2019 00:00:00 12,4 11,8 12,0 14,3 15,7 0 0 7 4 N 1007,2 10 0 0,8
19.10.2019 23:00:00 12,5 11,4 11,9 14,3 15,7 4 2 6 3 NE 1007,0 10 0 0,2
19.10.2019 22:00:00 12,3 10,9 11,8 14,3 15,7 5 3 17 9 - 1007,2 10 0 0,6
19.10.2019 21:00:00 12,2 10,9 11,8 14,3 15,8 8 5 14 7 SE 1006,9 60 0 0,2
19.10.2019 20:00:00 12,5 11,1 11,9 14,3 15,7 4 2 10 5 - 1007,2 10 0 0,0
19.10.2019 19:00:00 12,7 11,4 12,2 14,2 15,8 7 4 9 5 SE 1006,7 60 0 0,0
19.10.2019 18:00:00 12,8 11,4 12,4 14,2 15,8 0 0 6 3 N 1006,7 52 0 0,4
19.10.2019 17:00:00 13,0 11,2 12,6 14,1 15,8 4 2 27 14 W 1006,7 22 0 0,0
19.10.2019 16:00:00 13,5 11,0 12,9 14,0 15,8 20 11 28 15 W 1006,6 60 0 0,4
19.10.2019 15:00:00 14,6 11,6 13,3 13,9 15,8 18 10 29 15 WSW 1006,4 7 0 1,4
19.10.2019 14:00:00 16,5 11,0 16,3 13,9 15,8 16 9 32 17 SSW 1006,2 56 0 0,0
19.10.2019 13:00:00 16,4 10,9 15,9 13,9 15,8 16 9 35 19 SSW 1006,6 10 4 0,0
19.10.2019 12:00:00 15,4 11,0 14,2 13,9 15,8 13 7 22 12 S 1007,1 10 0 0,0
19.10.2019 11:00:00 14,1 10,7 13,5 13,9 15,8 13 7 23 13 S 1007,2 57 0 0,0
19.10.2019 10:00:00 13,6 10,6 12,1 14,0 15,8 12 6 21 11 S 1007,2 60 0 0,0
19.10.2019 09:00:00 12,9 10,4 11,7 14,0 15,8 13 7 21 11 S 1006,9 57 0 0,0
19.10.2019 08:00:00 12,7 10,6 11,6 14,1 15,8 11 6 22 12 SSE 1006,8 10 0 0,0
19.10.2019 07:00:00 12,4 10,6 11,6 14,1 15,8 9 5 19 11 S 1007,3 27 0 0,4
19.10.2019 06:00:00 12,5 10,4 12,0 14,2 15,8 13 7 22 12 SSE 1007,5 10 0 0,0
19.10.2019 05:00:00 12,6 10,5 11,8 14,3 15,8 13 7 21 11 SSE 1008,1 10 0 0,0
19.10.2019 04:00:00 12,6 10,0 11,6 14,4 15,8 13 7 22 12 S 1008,7 10 0 0,0
19.10.2019 03:00:00 12,7 9,5 11,7 14,4 15,8 13 7 22 12 S 1009,1 10 0 0,0
19.10.2019 02:00:00 12,2 9,2 11,6 14,5 15,9 13 7 21 12 SSE 1009,3 10 0 0,0
19.10.2019 01:00:00 12,5 9,1 11,4 14,6 15,9 11 6 20 11 SSE 1009,7 10 0 0,0
19.10.2019 00:00:00 12,3 8,8 11,0 14,7 15,8 13 7 22 12 S 1010,0 60 0 0,0
18.10.2019 23:00:00 12,0 8,5 10,7 14,7 15,9 9 5 15 8 SSE 1010,5 60 0 0,0
18.10.2019 22:00:00 11,9 8,2 10,7 14,8 15,9 7 4 11 6 S 1010,9 60 0 0,0
18.10.2019 21:00:00 12,1 8,4 11,0 14,8 15,9 5 3 13 7 SSE 1011,2 10 0 0,0
18.10.2019 20:00:00 12,0 8,1 11,3 14,8 15,9 8 4 16 9 SSE 1011,4 59 0 0,0
18.10.2019 19:00:00 13,5 7,7 12,4 14,8 15,9 9 5 18 10 SSW 1011,6 10 0 0,0
18.10.2019 18:00:00 14,6 7,4 13,8 14,7 15,9 12 7 29 16 SW 1011,5 57 4 0,0
18.10.2019 17:00:00 15,4 7,9 15,7 14,6 15,9 18 10 33 18 SW 1011,4 10 37 0,0
18.10.2019 16:00:00 15,8 7,0 14,9 14,5 15,9 21 11 36 19 WSW 1011,3 10 28 0,0
18.10.2019 15:00:00 15,2 7,7 15,5 14,5 15,9 24 13 42 23 SW 1011,4 10 29 0,0
18.10.2019 14:00:00 15,0 9,6 14,2 14,4 15,9 21 11 40 21 SW 1011,5 34 26 0,0
18.10.2019 13:00:00 14,2 9,8 12,4 14,4 15,9 12 6 23 13 SW 1011,2 60 9 0,0
18.10.2019 12:00:00 12,0 9,6 10,8 14,5 15,9 16 8 56 30 SW 1011,2 57 17 2,4
18.10.2019 11:00:00 15,8 10,8 13,6 14,5 15,9 29 15 46 25 SW 1010,1 35 23 0,0
18.10.2019 10:00:00 14,7 11,5 12,9 14,5 15,9 18 10 37 20 SSW 1009,9 10 0 0,0
18.10.2019 09:00:00 13,9 11,6 12,8 14,5 15,9 16 9 29 16 S 1009,6 34 0 0,2
18.10.2019 08:00:00 13,9 11,6 12,8 14,5 15,9 16 9 30 16 S 1009,4 35 0 0,0
18.10.2019 07:00:00 14,0 11,9 12,5 14,6 15,9 13 7 26 14 S 1009,8 10 0 0,2
18.10.2019 06:00:00 13,7 11,9 12,7 14,6 15,9 13 7 24 13 S 1010,2 50 0 0,0
18.10.2019 05:00:00 13,8 12,2 12,9 14,7 15,9 11 6 19 10 S 1010,5 10 0 0,0
18.10.2019 04:00:00 13,8 12,5 13,0 14,7 15,9 13 7 30 16 S 1010,6 33 0 2,8
18.10.2019 03:00:00 13,6 12,5 12,6 14,8 15,9 14 8 22 12 S 1012,0 3,5 0 1,4
18.10.2019 02:00:00 13,7 11,9 12,7 14,8 15,9 11 6 20 11 S 1011,9 39 0 0,0
18.10.2019 01:00:00 13,4 12,1 11,7 14,9 15,9 11 6 18 10 S 1012,1 10 0 0,0
18.10.2019 00:00:00 13,6 12,0 12,4 14,9 15,9 8 4 16 9 S 1012,2 10 0 0,0
17.10.2019 23:00:00 13,8 12,2 12,4 14,9 15,9 9 5 20 11 S 1012,6 42 0 0,0
17.10.2019 22:00:00 13,4 12,1 12,0 15,0 15,9 11 6 17 9 S 1012,6 10 0 0,0
17.10.2019 21:00:00 13,6 12,2 12,3 15,0 15,9 11 6 25 14 S 1012,9 10 0 0,0
17.10.2019 20:00:00 13,9 12,5 12,8 15,0 15,9 15 8 26 14 S 1012,8 10 0 0,0
17.10.2019 19:00:00 14,2 12,9 13,6 15,0 15,9 15 8 28 15 SSW 1012,5 10 0 0,4
17.10.2019 18:00:00 14,2 12,9 13,7 14,9 15,9 16 9 26 14 S 1012,1 9 0 0,4
17.10.2019 17:00:00 14,4 13,1 13,9 14,9 15,9 11 6 25 14 S 1012,1 10 0 0,2
17.10.2019 16:00:00 14,4 13,1 13,8 14,9 15,9 14 8 32 17 S 1012,2 9 0 0,4
17.10.2019 15:00:00 14,6 13,1 14,1 14,8 15,9 16 8 26 14 S 1012,2 12 0 1,0
17.10.2019 14:00:00 14,6 13,0 14,1 14,8 16,0 12 6 21 11 S 1012,6 5 0 0,8
17.10.2019 13:00:00 14,3 13,0 13,9 14,8 15,9 9 5 20 11 S 1013,4 7 0 2,0
17.10.2019 12:00:00 14,1 12,7 13,7 14,8 15,9 14 8 33 18 S 1013,5 7 0 0,4
17.10.2019 11:00:00 14,4 12,3 13,6 14,9 16,0 18 10 34 18 S 1013,3 10 0 0,0
17.10.2019 10:00:00 14,2 12,1 13,4 14,9 16,0 15 8 22 12 S 1013,3 9 0 0,4
17.10.2019 09:00:00 13,8 11,8 12,9 14,9 16,0 10 6 17 9 SSE 1013,1 58 0 0,2
17.10.2019 08:00:00 13,9 11,6 13,4 15,0 16,0 11 6 24 13 S 1012,8 10 0 0,0
17.10.2019 07:00:00 14,1 11,8 13,8 15,0 16,0 9 5 24 13 S 1012,5 10 0 0,0
17.10.2019 06:00:00 14,6 11,6 14,1 15,0 16,0 13 7 22 12 S 1012,6 58 0 0,0
17.10.2019 05:00:00 14,5 11,3 13,0 15,1 16,0 11 6 21 11 SSW 1012,6 10 0 0,0
17.10.2019 04:00:00 14,1 11,4 13,0 15,1 15,9 9 5 23 12 S 1012,6 10 0 0,0
17.10.2019 03:00:00 14,5 11,1 14,0 15,1 16,0 14 7 30 16 S 1012,3 60 0 0,0
17.10.2019 02:00:00 15,1 10,7 13,7 15,2 16,0 19 10 31 17 S 1012,0 42 0 0,2
17.10.2019 01:00:00 15,5 10,0 14,1 15,2 16,0 16 9 31 17 S 1011,5 10 0 0,0
17.10.2019 00:00:00 15,9 9,6 15,1 15,2 16,0 15 8 27 15 S 1011,7 10 0 0,0
16.10.2019 23:00:00 15,7 9,4 14,8 15,2 16,0 13 7 24 13 S 1011,9 10 0 0,0
16.10.2019 22:00:00 15,4 9,1 14,8 15,2 16,0 11 6 18 10 S 1011,8 10 0 0,0
16.10.2019 21:00:00 16,0 9,0 15,0 15,2 16,0 11 6 21 11 SSE 1011,1 59 0 0,0
16.10.2019 20:00:00 16,7 8,9 16,0 15,1 16,0 10 5 18 10 S 1011,3 60 0 0,0
16.10.2019 19:00:00 17,3 8,4 16,5 15,0 16,0 11 6 31 17 S 1011,4 10 0 0,0
16.10.2019 18:00:00 18,2 8,5 17,6 14,8 16,0 16 9 34 19 SW 1011,1 10 4 0,0
16.10.2019 17:00:00 19,0 8,3 19,0 14,7 16,0 19 10 41 22 SW 1011,2 53 26 0,0
16.10.2019 16:00:00 19,7 8,4 19,9 14,6 16,0 18 10 44 24 SSW 1011,5 10 54 0,0
16.10.2019 15:00:00 18,9 8,5 20,0 14,4 16,0 22 12 41 22 SSW 1011,7 26 60 0,0
16.10.2019 14:00:00 17,7 8,8 18,4 14,4 16,0 29 15 51 28 SSW 1012,1 32 21 0,0
16.10.2019 13:00:00 17,7 9,8 18,5 14,3 16,0 27 15 48 26 S 1012,8 24 55 0,0
16.10.2019 12:00:00 15,9 10,0 16,2 14,4 16,0 23 12 44 24 S 1012,9 36 42 0,0
16.10.2019 11:00:00 14,8 10,2 13,3 14,4 16,0 21 11 36 19 S 1013,0 10 33 0,0
16.10.2019 10:00:00 13,1 9,9 11,2 14,5 16,0 16 9 29 16 S 1013,3 10 0 0,0
16.10.2019 09:00:00 11,8 9,9 10,8 14,6 16,0 15 8 26 14 S 1013,4 12 0 0,0
16.10.2019 08:00:00 11,4 9,6 10,6 14,7 16,0 16 9 27 14 S 1013,4 10 0 0,0
16.10.2019 07:00:00 11,4 9,5 10,4 14,7 16,0 15 8 26 14 S 1013,3 10 0 0,0
16.10.2019 06:00:00 11,1 9,5 10,3 14,8 16,0 13 7 21 12 S 1013,7 10 0 0,0
16.10.2019 05:00:00 10,9 9,3 10,1 15,0 16,0 13 7 21 11 S 1013,9 3,0 0 0,8
16.10.2019 04:00:00 10,7 8,8 9,8 15,1 16,0 13 7 24 13 S 1014,3 10 0 0,0
16.10.2019 03:00:00 10,9 8,8 9,9 15,2 16,0 14 7 25 13 SSW 1014,5 50 0 0,0
16.10.2019 02:00:00 11,6 9,2 10,7 15,3 16,0 14 8 23 12 SSW 1014,5 54 0 0,0
16.10.2019 01:00:00 11,6 9,3 10,8 15,4 16,0 13 7 24 13 SSW 1014,3 10 0 0,0
16.10.2019 00:00:00 11,7 9,3 10,9 15,5 16,0 15 8 30 16 SSW 1013,8 41 0 0,0
15.10.2019 23:00:00 11,7 9,8 10,4 15,5 15,9 14 8 24 13 SSW 1013,5 37 0 0,0
15.10.2019 22:00:00 11,6 10,0 10,6 15,6 16,0 16 9 32 18 SSW 1012,8 36 0 0,0
15.10.2019 21:00:00 11,9 10,6 10,9 15,6 15,9 13 7 22 12 SSW 1012,3 34 0 0,0
15.10.2019 20:00:00 12,3 11,0 11,6 15,7 16,0 13 7 23 12 SSW 1011,7 30 0 0,0
15.10.2019 19:00:00 12,7 11,3 12,0 15,7 15,9 11 6 29 15 SSW 1011,1 10 0 0,6
15.10.2019 18:00:00 13,3 11,4 12,5 15,7 15,9 15 8 25 13 WSW 1009,9 10 0 0,0
15.10.2019 17:00:00 13,3 11,2 12,3 15,7 15,9 10 6 22 12 WSW 1009,3 48 0 0,0
15.10.2019 16:00:00 12,9 10,1 12,2 15,7 15,9 13 7 39 21 W 1009,0 10 5 0,4
15.10.2019 15:00:00 13,9 12,9 13,7 15,7 15,9 14 8 24 13 SSW 1008,3 4,2 0 0,0
15.10.2019 14:00:00 14,0 12,2 13,3 15,8 15,9 10 6 19 10 S 1008,9 50 0 0,2
15.10.2019 13:00:00 13,8 12,2 13,5 15,8 15,9 9 5 19 10 SSW 1009,1 10 0 0,0
15.10.2019 12:00:00 13,7 12,1 13,3 15,9 15,9 11 6 17 9 SSW 1008,7 10 0 0,2
15.10.2019 11:00:00 13,2 12,4 12,8 16,0 15,9 8 4 20 11 SSW 1009,4 6 0 0,2
15.10.2019 10:00:00 13,1 12,5 12,6 16,1 15,9 11 6 18 10 SW 1008,8 30 0 0,6
15.10.2019 09:00:00 12,9 12,3 12,4 16,1 15,9 4 2 14 8 S 1007,8 6 0 1,2
15.10.2019 08:00:00 12,8 12,3 12,4 16,2 15,9 10 5 16 9 E 1007,1 12 0 0,6
15.10.2019 07:00:00 13,0 12,4 12,6 16,3 15,9 9 5 16 9 SSE 1007,9 10 0 2,2

tt = Température de l'air
td = dewpoint
tt 5cm = Température de l'air 5cm
tt -20cm = Température de l'air -20cm
tt -100cm = Température de l'air -100cm
ff = Vitesse du vent
fx = gusts
dd = Direction du vent
ppp = reduced air pressure
vv = visibility
sd = Ensoleillement
rr = Quantités de précipitations

stations d'obs. à proximité